Hibbing, MN

9:14 PM CDT on April 22, 2018 (GMT -0500)
Chisholm-hibbing

Weather History for KHIB - October, 2014

Change the Weather History Date:

Wednesday, October 1, 2014

  Actual Average Record
Temperature  
Mean Temperature 48 °F 47 °F  
Max Temperature 52 °F 58 °F 83 °F (1963)
Min Temperature 43 °F 34 °F 20 °F (2003)
Degree Days  
Heating Degree Days 17 18  
Month to date heating degree days 18  
Cooling Degree Days 0 0  
Month to date cooling degree days 0  
Moisture  
Dew Point 46 °F    
Average Humidity 86    
Maximum Humidity 96    
Minimum Humidity 64    
Precipitation  
Precipitation 0.06 in 0.09 in 0.73 in (1964)
Month to date precipitation 0.09  
Sea Level Pressure  
Sea Level Pressure 29.85 in    
Wind  
Wind Speed 9 mph (SSE)    
Max Wind Speed 15 mph    
Max Gust Speed 17 mph    
Visibility 7 miles    
Events Rain    
T = Trace of Precipitation, MM = Missing Value Source: NWS Daily Summary

Daily Weather History Graph

Daily Weather History Graph

Search for Another Location

Airport or City:

Astronomy

Oct. 01, 2014 Rise Set
Actual Time 7:10 AM CDT 6:50 PM CDT
Civil Twilight 6:39 AM CDT 7:21 PM CDT
Nautical Twilight 6:04 AM CDT 7:56 PM CDT
Astronomical Twilight 5:27 AM CDT 8:32 PM CDT
Moon 2:29 PM CDT (10/1) No Moon Set
Length of Visible Light 12h 41m
Length of Day
11h 40m
Waxing Crescent, 49% of the Moon is Illuminated
Oct 1
Waxing Crescent
Oct 1
First Quarter
Oct 8
Full
Oct 15
Last Quarter
Oct 23
New

Hourly Weather History & Observations

Time (CDT) Temp. Windchill Dew Point Humidity Pressure Visibility Wind Dir Wind Speed Gust Speed Precip Events Conditions
12:53 AM 44.1 °F 38.6 °F 37.9 °F 79% 30.19 in 10.0 mi SE 10.4 mph - N/A   Overcast
1:36 AM 48.0 °F - 43.0 °F 83% 29.86 in 10.0 mi SE 9.2 mph - N/A   Overcast
1:53 AM 43.0 °F 38.8 °F 37.9 °F 82% 30.19 in 10.0 mi SSE 6.9 mph - N/A   Overcast
2:29 AM 48.0 °F - 43.0 °F 83% 29.86 in 10.0 mi SE 9.2 mph - N/A   Mostly Cloudy
2:53 AM 48.0 °F - 43.0 °F 83% 29.88 in 10.0 mi SE 8.1 mph - N/A   Mostly Cloudy
3:53 AM 48.0 °F - 43.0 °F 83% 29.87 in 10.0 mi SSE 9.2 mph - N/A   Partly Cloudy
4:53 AM 50.0 °F - 44.1 °F 80% 29.86 in 10.0 mi SSE 9.2 mph - N/A   Overcast
5:53 AM 50.0 °F - 44.1 °F 80% 29.86 in 10.0 mi SSE 10.4 mph - N/A   Overcast
6:53 AM 48.9 °F - 44.1 °F 83% 29.85 in 10.0 mi SSE 12.7 mph - N/A   Overcast
7:53 AM 48.9 °F - 44.1 °F 83% 29.86 in 10.0 mi SSE 10.4 mph - N/A   Overcast
8:53 AM 48.9 °F - 44.1 °F 83% 29.87 in 10.0 mi SSE 8.1 mph - N/A   Overcast
9:24 AM 48.9 °F - 44.1 °F 83% 29.83 in 6.0 mi SSE 11.5 mph - N/A   Haze
9:53 AM 48.9 °F - 45.0 °F 86% 29.86 in 5.0 mi SSE 9.2 mph - N/A   Overcast
10:53 AM 50.0 °F - 46.0 °F 86% 29.84 in 4.0 mi SSE 10.4 mph - N/A   Overcast
11:53 AM 50.0 °F - 46.0 °F 86% 29.84 in 4.0 mi SSE 6.9 mph 17.3 mph N/A   Overcast
12:51 PM 50.0 °F - 41.0 °F 71% 30.05 in 10.0 mi ESE 12.7 mph - N/A   Overcast
12:53 PM 50.0 °F - 46.9 °F 89% 29.82 in 10.0 mi SSE 8.1 mph - 0.01 in Rain Light Rain
1:17 PM 53.1 °F - 41.0 °F 64% 30.03 in 10.0 mi SE 15.0 mph - N/A   Scattered Clouds
1:53 PM 50.0 °F - 46.9 °F 89% 29.80 in 10.0 mi SSE 9.2 mph - 0.02 in   Overcast
2:53 PM 50.0 °F - 48.0 °F 93% 29.78 in 10.0 mi SSE 8.1 mph - N/A   Overcast
3:07 PM 50.0 °F - 48.0 °F 93% 29.75 in 10.0 mi South 6.9 mph - N/A   Overcast
3:24 PM 50.0 °F - 48.0 °F 93% 29.76 in 10.0 mi SSE 5.8 mph - 0.00 in Rain Light Rain
3:53 PM 51.1 °F - 48.0 °F 89% 29.79 in 6.0 mi South 8.1 mph - 0.01 in Rain Light Rain
4:53 PM 51.1 °F - 48.0 °F 89% 29.78 in 10.0 mi SSE 9.2 mph - 0.02 in Rain Light Rain
5:53 PM 51.1 °F - 48.0 °F 89% 29.78 in 10.0 mi SSE 10.4 mph - 0.00 in   Overcast
6:33 PM 51.1 °F - 48.0 °F 89% 29.77 in 6.0 mi SSE 6.9 mph - 0.00 in   Overcast
6:53 PM 51.1 °F - 48.0 °F 89% 29.79 in 8.0 mi South 9.2 mph - 0.00 in   Overcast
7:23 PM 51.1 °F - 48.9 °F 92% 29.78 in 4.0 mi South 6.9 mph - N/A   Overcast
7:48 PM 51.8 °F - 48.2 °F 88% 29.79 in 2.5 mi South 6.9 mph - N/A   Overcast
7:53 PM 51.1 °F - 48.9 °F 92% 29.81 in 2.0 mi South 8.1 mph - N/A   Overcast
8:53 PM 51.1 °F - 48.9 °F 92% 29.83 in 2.0 mi SSW 4.6 mph - N/A   Overcast
9:50 PM 51.8 °F - 48.2 °F 88% 29.80 in 3.0 mi South 3.5 mph - N/A   Overcast
9:53 PM 51.1 °F - 48.9 °F 92% 29.83 in 3.0 mi Variable 4.6 mph - N/A   Overcast
10:01 PM 51.1 °F - 48.9 °F 92% 29.80 in 2.5 mi SSW 3.5 mph - N/A   Overcast
10:53 PM 51.1 °F - 50.0 °F 96% 29.82 in 2.5 mi Calm Calm - N/A   Overcast
11:32 PM 52.0 °F - 50.0 °F 93% 29.81 in 1.5 mi Variable 3.5 mph - N/A   Overcast
11:53 PM 52.0 °F - 50.0 °F 93% 29.83 in 1.0 mi Variable 3.5 mph - N/A   Overcast